Lamar, CO

10:56 AM MST on December 12, 2019 (GMT -0700)
Lamar Municipal

Weather History for KLAA - October, 2019

Change the Weather History Date:

Friday, October 25, 2019

  Actual Average Record
Temperature  
Mean Temperature 40 °F 49 °F  
Max Temperature 62 °F 67 °F 91 °F (1959)
Min Temperature 18 °F 32 °F 18 °F (2019)
Degree Days  
Heating Degree Days 25 16  
Month to date heating degree days 340 280  
Since 1 July heating degree days 346 363  
Cooling Degree Days 0 0  
Month to date cooling degree days 1 8  
Year to date cooling degree days 1406 1120  
Moisture  
Dew Point 25 °F    
Average Humidity 58    
Maximum Humidity 92    
Minimum Humidity 23    
Precipitation  
Precipitation 0.00 in 0.02 in 0.40 in (1918)
Month to date precipitation 0.13 0.68  
Year to date precipitation 7.88 14.30  
Sea Level Pressure  
Sea Level Pressure 30.26 in    
Wind  
Wind Speed 9 mph (WSW)    
Max Wind Speed 16 mph    
Max Gust Speed 23 mph    
Visibility 10 miles    
Events      
T = Trace of Precipitation, MM = Missing Value Source: NWS Daily Summary

Daily Weather History Graph

Daily Weather History Graph

Search for Another Location

Airport or City:

Astronomy

Oct. 25, 2019 Rise Set
Actual Time 7:09 AM MDT 5:59 PM MDT
Civil Twilight 6:42 AM MDT 6:26 PM MDT
Nautical Twilight 6:11 AM MDT 6:57 PM MDT
Astronomical Twilight 5:40 AM MDT 7:28 PM MDT
Moon 3:58 AM MDT (10/25) 4:59 PM MDT (10/25)
Length of Visible Light 11h 44m
Length of Day
10h 50m
Waning Crescent, 8% of the Moon is Illuminated
Oct 25
Waning Crescent
Oct 27
New
Nov 4
First Quarter
Nov 12
Full
Nov 19
Last Quarter

Hourly Weather History & Observations

Time (MDT) Temp. Windchill Dew Point Humidity Pressure Visibility Wind Dir Wind Speed Gust Speed Precip Events Conditions
12:53 AM 28.0 °F 19.3 °F 25.0 °F 88% 30.41 in 10.0 mi SSW 9.2 mph - N/A   Clear
1:53 AM 27.0 °F 16.7 °F 24.1 °F 89% 30.41 in 10.0 mi WSW 11.5 mph - N/A   Clear
2:53 AM 23.0 °F 13.9 °F 19.9 °F 88% 30.41 in 10.0 mi SW 8.1 mph - N/A   Clear
3:53 AM 21.0 °F 11.4 °F 19.0 °F 92% 30.41 in 10.0 mi SW 8.1 mph - N/A   Clear
4:53 AM 23.0 °F 18.4 °F 18.0 °F 81% 30.39 in 10.0 mi WSW 3.5 mph - N/A   Clear
5:53 AM 21.9 °F 14.5 °F 19.0 °F 89% 30.41 in 10.0 mi WSW 5.8 mph - N/A   Clear
6:53 AM 21.9 °F 12.5 °F 18.0 °F 85% 30.41 in 10.0 mi West 8.1 mph - N/A   Clear
7:53 AM 25.0 °F 19.3 °F 21.9 °F 88% 30.42 in 10.0 mi West 4.6 mph - N/A   Clear
8:53 AM 33.1 °F 23.4 °F 25.0 °F 72% 30.40 in 10.0 mi West 13.8 mph - N/A   Clear
9:53 AM 39.0 °F 31.0 °F 27.0 °F 62% 30.38 in 10.0 mi West 13.8 mph - N/A   Clear
10:53 AM 46.0 °F 39.3 °F 28.9 °F 51% 30.35 in 10.0 mi West 16.1 mph - N/A   Clear
11:53 AM 48.9 °F - 28.9 °F 46% 30.31 in 10.0 mi West 10.4 mph - N/A   Clear
12:53 PM 55.9 °F - 28.9 °F 36% 30.25 in 10.0 mi WNW 10.4 mph - N/A   Clear
1:53 PM 59.0 °F - 24.1 °F 26% 30.19 in 10.0 mi WSW 4.6 mph - N/A   Clear
2:53 PM 61.0 °F - 23.0 °F 23% 30.17 in 10.0 mi WSW 10.4 mph 17.3 mph N/A   Clear
3:53 PM 61.0 °F - 24.1 °F 24% 30.15 in 10.0 mi North - - N/A   Clear
4:53 PM 60.1 °F - 24.1 °F 25% 30.12 in 10.0 mi WSW 8.1 mph - N/A   Clear
5:53 PM 53.1 °F - 28.0 °F 38% 30.13 in 10.0 mi SW 9.2 mph - N/A   Clear
6:53 PM 41.0 °F 35.2 °F 28.9 °F 62% 30.16 in 10.0 mi SSW 9.2 mph - N/A   Clear
7:53 PM 39.9 °F 33.4 °F 28.9 °F 65% 30.14 in 10.0 mi SSW 10.4 mph - N/A   Clear
8:53 PM 37.0 °F 29.8 °F 28.0 °F 70% 30.12 in 10.0 mi SSW 10.4 mph - N/A   Clear
9:53 PM 37.9 °F 32.1 °F 28.9 °F 70% 30.08 in 10.0 mi West 8.1 mph - N/A   Clear
10:53 PM 33.1 °F 27.7 °F 28.0 °F 82% 30.05 in 10.0 mi WSW 5.8 mph - N/A   Clear
11:53 PM 34.0 °F 26.6 °F 28.0 °F 79% 30.02 in 10.0 mi SW 9.2 mph - N/A   Clear